Wind_Speed
23 25 26 28 30 30 31 31 30 28 27 26 25 24 26 26 25 25 25 25 26 25 26 27 27 27 26 27 27 24 22 23
25 27 29 30 32 33 32 31 29 28 27 26 25 25 26 26 27 26 26 26 27 27 28 28 28 29 29 31 32 31 30 28
23 25 28 30 31 31 30 28 26 25 23 23 22 23 22 23 26 26 27 27 28 28 29 29 28 28 30 32 33 34 35 34
25 26 26 27 27 27 27 24 24 23 22 22 22 22 22 22 21 23 25 25 26 29 30 31 28 29 30 33 34 35 33 34
29 30 32 32 32 32 32 29 28 28 28 27 28 27 28 28 27 28 29 31 33 34 33 38 35 35 37 35 38 41 41 37
29 30 30 31 36 40 38 36 34 34 34 34 35 34 34 34 34 34 36 38 40 41 40 35 38 45 45 43 45 47 48 46
34 33 33 35 34 36 36 38 39 40 39 38 38 37 36 37 37 38 39 39 41 43 44 44 44 46 50 50 50 50 50 48
37 35 35 35 34 33 33 33 34 33 33 33 33 34 36 38 39 40 41 42 41 42 43 45 46 47 48 50 51 51 51 51
37 36 36 34 33 32 31 32 33 33 34 35 35 34 34 35 36 38 39 41 42 44 45 46 48 49 50 53 52 52 52 52
38 36 35 34 34 34 34 34 34 34 33 33 33 34 35 36 37 38 40 42 43 45 47 50 52 54 56 57 57 57 57 56
38 37 35 34 34 33 32 31 32 33 34 35 35 35 37 38 40 42 44 45 46 48 51 52 54 58 60 62 63 62 62 62
37 36 35 34 32 31 32 32 34 35 36 36 37 38 39 40 42 43 46 49 51 54 57 60 63 64 65 66 68 70 70 67
34 33 34 33 32 32 34 34 35 37 38 38 39 40 41 44 45 47 50 54 56 60 64 68 72 74 78 65 64 69 72 73
33 35 35 35 35 35 35 37 37 38 40 41 41 43 45 48 51 54 57 58 61 65 72 77 79 81 75 64 63 68 69 71
35 35 36 37 38 39 39 39 40 40 41 42 44 47 50 53 56 59 61 64 65 70 71 74 74 67 63 64 65 69 71 73
38 39 40 39 40 41 41 41 43 44 44 45 48 52 55 58 61 62 64 66 68 67 65 66 65 64 63 61 61 62 65 62
38 40 42 42 42 42 42 44 45 46 46 49 53 56 58 59 60 61 62 64 63 62 60 60 64 62 58 57 56 56 58 60
39 40 43 44 43 43 44 45 46 47 49 51 55 58 59 60 61 61 62 62 61 61 60 59 60 60 58 57 58 58 55 56
41 42 43 43 44 46 47 47 48 49 51 53 57 60 60 58 59 61 61 61 61 62 60 56 54 55 54 54 53 54 56 56
43 43 42 46 49 51 51 50 49 50 52 55 57 58 58 60 63 63 62 62 62 60 52 50 49 47 48 49 52 52 49 51
Wind_Direction
259 260 262 263 266 270 272 275 278 279 279 279 276 276 279 280 276 280 282 282 281 277 279 282 284 285 285 285 283 276 277 274
265 264 264 265 265 268 270 274 278 282 283 282 281 279 276 273 273 277 279 283 283 283 280 279 279 282 284 283 282 283 278 277
266 266 266 267 270 274 279 281 281 280 281 283 283 282 284 282 282 283 284 284 284 284 284 284 284 284 283 282 282 280 280 280
277 278 278 277 276 277 275 275 276 276 275 277 279 282 285 286 288 287 284 281 282 284 286 284 286 286 285 286 285 282 281 283
268 272 275 275 276 276 275 274 273 276 278 280 281 281 280 280 281 283 286 286 279 288 283 281 278 284 285 285 286 280 274 280
277 276 274 277 278 274 273 272 274 276 279 281 282 282 281 283 282 281 283 284 284 287 284 283 272 280 280 282 281 280 283 287
278 278 279 283 283 275 272 272 273 272 275 279 282 284 284 285 286 286 286 285 286 286 286 285 282 277 277 279 279 279 280 281
277 276 278 281 282 279 275 275 276 275 273 274 276 279 281 282 284 286 287 287 286 284 284 284 284 283 280 278 278 276 275 274
279 280 281 278 276 278 280 280 279 277 276 275 276 276 278 280 281 282 284 285 285 286 286 286 285 283 280 280 279 277 275 272
285 284 279 276 275 277 278 277 275 274 273 275 277 280 281 281 282 282 282 282 283 284 283 283 283 281 282 281 278 276 276 273
277 276 276 275 274 275 273 272 273 275 276 277 278 280 282 283 285 286 288 288 286 285 284 282 279 279 276 277 277 276 273 272
273 272 271 270 271 269 269 271 273 274 275 277 278 279 281 283 286 287 289 289 288 288 288 286 285 282 277 272 271 272 273 272
271 269 269 269 268 269 269 271 272 274 275 276 278 281 286 287 286 285 284 283 283 286 289 288 285 281 284 280 270 268 268 269
269 270 271 270 268 267 269 270 271 273 275 278 283 286 287 287 287 288 288 288 288 289 287 286 286 286 287 283 268 265 263 263
272 274 274 272 271 270 270 272 274 275 278 283 287 289 290 290 290 291 291 290 289 293 293 290 289 288 282 276 267 264 266 266
277 277 272 271 272 271 273 275 277 279 282 285 288 290 291 290 289 290 291 291 295 298 295 292 290 286 282 278 273 270 269 268
278 275 273 273 274 276 276 276 277 280 284 288 289 290 289 289 291 293 295 298 299 297 293 291 287 285 279 278 277 273 270 266
272 270 272 275 277 277 276 277 279 282 286 288 289 288 288 291 293 295 297 300 301 297 291 287 286 284 281 281 280 278 274 271
273 274 276 279 281 281 279 280 281 283 285 287 287 288 290 294 297 300 301 301 297 292 289 286 282 280 280 284 284 282 272 270
274 278 283 285 284 282 281 281 282 284 285 286 287 290 294 298 301 304 303 301 298 295 291 285 282 280 283 290 287 281 268 267
Height
5846 5845 5845 5844 5844 5844 5844 5844 5844 5844 5843 5843 5842 5841 5841 5841 5839 5838 5838 5838 5838 5837 5837 5837 5837 5837 5835 5833 5833 5833 5833 5830
5841 5840 5840 5840 5839 5839 5839 5840 5839 5839 5839 5839 5838 5837 5837 5835 5835 5834 5834 5834 5834 5833 5833 5831 5832 5832 5831 5829 5828 5828 5828 5828
5837 5837 5837 5836 5836 5836 5836 5835 5835 5834 5834 5833 5833 5832 5832 5832 5832 5831 5831 5831 5830 5829 5829 5828 5828 5828 5826 5825 5823 5822 5821 5822
5833 5832 5832 5832 5831 5830 5831 5830 5828 5829 5828 5828 5827 5828 5827 5827 5827 5828 5827 5827 5826 5826 5826 5825 5824 5823 5821 5819 5818 5817 5816 5814
5829 5827 5826 5826 5825 5825 5824 5824 5824 5823 5823 5822 5822 5822 5822 5822 5822 5822 5822 5821 5821 5820 5819 5818 5818 5818 5816 5814 5813 5812 5809 5809
5822 5821 5821 5820 5819 5818 5818 5817 5818 5817 5816 5816 5815 5815 5814 5814 5815 5815 5815 5814 5813 5812 5812 5811 5811 5809 5808 5806 5806 5804 5803 5802
5815 5814 5813 5813 5812 5811 5810 5810 5810 5810 5809 5809 5807 5806 5806 5806 5806 5806 5806 5805 5805 5803 5802 5802 5801 5801 5799 5798 5798 5797 5794 5793
5807 5807 5807 5806 5805 5803 5803 5803 5803 5802 5802 5801 5800 5799 5798 5798 5797 5797 5797 5796 5795 5795 5795 5793 5791 5790 5789 5788 5787 5786 5786 5785
5800 5800 5799 5799 5798 5797 5796 5796 5795 5794 5793 5792 5791 5791 5791 5790 5790 5790 5789 5788 5787 5785 5784 5784 5783 5781 5779 5777 5776 5774 5774 5773
5792 5792 5792 5791 5790 5790 5790 5789 5788 5787 5785 5784 5783 5782 5782 5781 5781 5781 5780 5780 5778 5777 5775 5773 5773 5771 5769 5767 5764 5763 5761 5760
5785 5784 5784 5784 5783 5783 5782 5781 5780 5779 5778 5777 5775 5773 5772 5771 5770 5769 5768 5767 5766 5765 5763 5762 5761 5758 5757 5755 5752 5749 5748 5746
5777 5776 5776 5776 5776 5775 5774 5773 5772 5771 5769 5768 5766 5765 5763 5761 5760 5758 5757 5756 5754 5751 5750 5748 5747 5744 5742 5739 5736 5735 5732 5730
5770 5769 5768 5767 5767 5767 5765 5764 5764 5762 5761 5759 5757 5755 5753 5751 5749 5747 5746 5743 5740 5738 5735 5732 5729 5726 5722 5720 5717 5718 5716 5714
5763 5761 5760 5759 5759 5758 5757 5756 5755 5753 5751 5749 5746 5744 5742 5739 5736 5733 5730 5728 5725 5722 5719 5715 5710 5705 5703 5702 5701 5699 5698 5696
5753 5752 5751 5750 5749 5748 5747 5745 5744 5743 5741 5738 5735 5732 5729 5726 5723 5719 5716 5712 5708 5706 5701 5697 5692 5688 5683 5682 5681 5681 5679 5677
5743 5743 5741 5740 5739 5737 5735 5734 5732 5731 5729 5726 5723 5719 5716 5712 5709 5705 5701 5697 5692 5687 5682 5678 5674 5671 5666 5664 5661 5661 5663 5662
5734 5733 5731 5730 5728 5726 5725 5723 5722 5720 5718 5714 5710 5705 5702 5698 5694 5690 5685 5681 5676 5670 5665 5660 5657 5655 5651 5647 5644 5643 5643 5646
5724 5723 5721 5719 5717 5715 5714 5712 5710 5707 5704 5700 5696 5692 5687 5683 5678 5674 5669 5664 5659 5654 5649 5643 5639 5638 5635 5632 5629 5627 5626 5626
5715 5712 5710 5708 5706 5704 5702 5700 5697 5694 5691 5687 5683 5678 5674 5669 5664 5659 5653 5647 5641 5636 5631 5626 5622 5620 5619 5616 5613 5610 5610 5609
5703 5702 5700 5697 5695 5692 5690 5688 5685 5682 5678 5673 5668 5663 5659 5654 5649 5643 5637 5630 5624 5619 5615 5611 5607 5605 5603 5601 5598 5595 5593 5593